Regional Weather Roundup
Issued by NWS

Home | Current Version | Previous Version | Graphics & Text | Print | Product List | Glossary Off
Versions: 1 2 3 4 5 6 7 8 9 10 11 12 13 14 15 16 17 18 19 20 21 22 23 24 25 26 27 28 29 30 31 32 33 34 35 36 37 38 39 40 41 42 43 44 45 46 47 48 49

000
ASUS43 KDMX 302207
RWRIA

WEATHER ROUNDUP FOR IOWA
NATIONAL WEATHER SERVICE DES MOINES IA
500 PM CDT TUE SEP 30 2014

NOTE: "FAIR" INDICATES FEW OR NO CLOUDS BELOW 12,000 FEET WITH NO
SIGNIFICANT WEATHER AND/OR OBSTRUCTIONS TO VISIBILITY.

* - THESE STATIONS ARE NOT NWS STATIONS...THUS NOT UNDER NWS
QUALITY CONTROL.  THEY ALSO DO NOT REPORT WEATHER SUCH
AS PRECIPITATION OR FOG.

IAZ001>003-012>014-020>022-031>034-043>046-302300-
   NORTHWEST IOWA

CITY           SKY/WX    TMP DP  RH WIND       PRES   REMARKS
CARROLL *      PTSUNNY   66  59  77 E7G13     29.82R
CHEROKEE *     LGT RAIN  63  63 100 E5        29.80F
DENISON *      LGT RAIN  64  64 100 E9        29.81S
LE MARS *      CLOUDY    66  63  88 S10G17    29.76F
ORANGE CITY *  SUNNY     66  61  82 S10       29.77F
SHELDON *      CLOUDY    63  61  94 S8G21     29.78F
SIOUX CITY     CLOUDY    67  63  87 S15G23    29.76R
SPENCER        RAIN      61  59  93 SE9       29.86F FOG
STORM LAKE *   LGT RAIN  61  61 100 E9        29.84F
$$

IAZ055>058-069>071-079>083-090>094-302300-
   SOUTHWEST IOWA

CITY           SKY/WX    TMP DP  RH WIND       PRES   REMARKS
ATLANTIC *     HVY RAIN  66  64  94 W12       29.82R
AUDUBON *      HVY RAIN  64  59  82 NW8       29.83R
CLARINDA *     HVY RAIN  68  66  94 NW9G15    29.81R
COUNCIL BLFS * CLOUDY    64  64 100 CALM      29.80R FOG
CRESTON *      MOSUNNY   73  64  73 E10G17    29.82R
HARLAN  *      CLOUDY    64  64 100 E3        29.85F FOG
LAMONI         PTSUNNY   75  65  70 E12       29.82F
RED OAK *      LGT RAIN  66  64  94 NW3       29.81F
SHENANDOAH *   DRIZZLE   66  66 100 W5        29.81S
$$

IAZ047>049-059>061-072>074-084-302300-
   CENTRAL IOWA

CITY           SKY/WX    TMP DP  RH WIND       PRES   REMARKS
AMES           MOSUNNY   67  57  70 SE12      29.85F
ANKENY *       SUNNY     68  59  73 SE13      29.84F
CHARITON *     SUNNY     72  61  68 E13       29.84F
DES MOINES     PTSUNNY   70  58  65 E10G17    29.83F
GRINNELL*      SUNNY     68  55  64 E12       29.89F
KNOXVILLE *    SUNNY     72  59  64 E12G17    29.84F
MARSHALLTOWN   MOSUNNY   66  56  70 E14       29.88F
PELLA *        SUNNY     72  57  60 E7        29.88F
PERRY *          N/A     66  58  76 SE7       29.83S
$$

IAZ004>006-015-016-023>025-035-036-302300-
   NORTH CENTRAL IOWA

CITY           SKY/WX    TMP DP  RH WIND       PRES   REMARKS
ALGONA *       CLOUDY    64  55  72 SE10      29.87R
CLARION *      MOSUNNY   68  55  64 SE12G20   29.86S
ESTHERVILLE    CLOUDY    64  55  72 SE10      29.85F
FORT DODGE *   PTSUNNY   66  55  68 SE10      29.85S
MASON CITY     MOSUNNY   64  52  64 SE14      29.90F
FOREST CITY *  CLOUDY    63  54  72 SE12      29.88S
IOWA FALLS *     N/A     66  54  63 E10G16    29.89S
$$

IAZ007>011-017>019-026>030-037>042-050>054-066-302300-
   NORTHEAST IOWA

CITY           SKY/WX    TMP DP  RH WIND       PRES   REMARKS
CEDAR RAPIDS   SUNNY     64  54  68 E10       29.92F
CHARLES CITY * SUNNY     63  50  63 E14       29.92F
CLINTON *      SUNNY     63  48  59 E9        29.99S
DECORAH *      SUNNY     57  46  67 E13       29.95F
MONTICELLO *   PTSUNNY   61  48  63 E8        29.96S
OELWEIN *      SUNNY     63  48  59 E13G18    29.94F
WATERLOO       SUNNY     65  51  60 SE15      29.90F
$$

IAZ064-065-067-068-078-302300-
   EAST CENTRAL IOWA

CITY           SKY/WX    TMP DP  RH WIND       PRES   REMARKS
IOWA CITY      SUNNY     68  54  60 E10       29.94F
MT. PLEASANT * SUNNY     72  54  53 E8        29.92S
MUSCATINE *    SUNNY     68  52  56 NE14      29.93S
$$

IAZ062-063-075>077-085>089-095>099-302300-
   SOUTHEAST IOWA

CITY           SKY/WX    TMP DP  RH WIND       PRES   REMARKS
BURLINGTON     SUNNY     71  57  61 E7        29.92S
FAIRFIELD *    SUNNY     68  57  68 E10G16    29.91F
FORT MADISON * SUNNY     73  55  53 E7        29.92S
KEOKUK *       SUNNY     73  61  64 E9        29.89F
OSKALOOSA *      N/A     72  57  60 E10       29.88F
CENTERVILLE *  SUNNY     70  63  78 E9        29.88F
OTTUMWA        SUNNY     70  57  63 E16       29.86F
WASHINGTON *   SUNNY     70  55  60 E10       29.92S
$$

ABBREVIATIONS USED IN REMARKS
   TC - TEMPERATURES IN CELSIUS
  WCI - WIND CHILL INDEX
   HX - HEAT INDEX
  VSB - VISIBILITY
$$




USA.gov is the U.S. government's official web portal to all federal, state and local government web resources and services.